Location: Andiroba
(19.8650°S, 43.9258°W)
Time: 00:42:29
(UTC+00:00)

Cosmos 2369 Rocket - Pass Details

Date: 15 June 2024
Orbit: 828 x 852 km, 71.0° (Epoch: 24 July)

Event Time Altitude Azimuth Distance (km) Brightness Sun altitude
Exits shadow 06:57:59 17° 146° (SE) 2,017 4.3 -34.1°
Maximum altitude 07:00:25 22° 113° (ESE) 1,757 4.3 -33.6°
Drops below altitude 10° 07:04:41 10° 63° (ENE) 2,443 5.4 -32.6°
Sets 07:07:38 0° 48° (NE) 3,366 6.2 -31.9°
